Regional Weather Roundup
Issued by NWS

Home | Current Version | Previous Version | Text Only | Print | Product List | Glossary Off
Versions: 1 2 3 4 5 6 7 8 9 10 11 12 13 14 15 16 17 18 19 20 21 22 23 24 25 26 27 28 29 30 31 32 33 34 35 36 37 38 39 40 41 42 43 44 45 46 47 48 49 50

509
ASUS44 KJAN 310603
RWRMS

MISSISSIPPI HOURLY WEATHER ROUNDUP
NATIONAL WEATHER SERVICE JACKSON MS
100 AM CDT THU JUL 31 2014

NOTE: "FAIR: INDICATES FEW OR NO CLOUDS BELOW 12,000 FEET WITH NO
SIGNIFICANT WEATHER AND/OR OBSTRUCTIONS TO VISIBILITY.

MSZ001>002-007>008-010>013-018>021-025>028-034>036-310700-
NORTHWEST MISSISSIPPI

CITY           SKY/WX    TMP DP  RH WIND       PRES   REMARKS
CLARKSDALE     CLOUDY    70  70 100 N3        30.07S
CLEVELAND      CLOUDY    71  69  94 NE3       30.05S
GREENWOOD      CLOUDY    70  68  93 CALM      30.06S
6HR MIN TEMP:  70; 6HR MAX TEMP:  76;

GREENVILLE     CLOUDY    72  69  90 NE3       30.04F
6HR MIN TEMP:  72; 6HR MAX TEMP:  77; 6HR PCP: TRACE;

GRENADA        FAIR      68  64  88 CALM      30.07S
OLIVE BRANCH   CLOUDY    68  68 100 N6        30.09R
OXFORD         FAIR      68  64  88 CALM      30.09S
TUNICA         LGT RAIN  70  68  94 N3        30.08S
$$

MSZ003>006-009-014>017-022>024-029>033-037>039-310700-
NORTHEAST MISSISSIPPI

CITY           SKY/WX    TMP DP  RH WIND       PRES   REMARKS
BELMONT        FAIR      69  65  88 CALM      30.07S
COLUMBUS AFB   CLOUDY    69  64  84 NE3       30.05S
6HR MIN TEMP:  69; 6HR MAX TEMP:  76;

CORINTH        CLOUDY    68  66  94 CALM      30.07S
GOLDN TRIANGLE CLOUDY    70  61  73 CALM      30.06S
STARKVILLE     FAIR      68  63  83 CALM      30.06S
TUPELO         CLOUDY    72  63  73 N3        30.07R
6HR MIN TEMP:  71; 6HR MAX TEMP:  78;

$$

MSZ040-058-310700-
CENTRAL MISSISSIPPI

CITY           SKY/WX    TMP DP  RH WIND       PRES   REMARKS
JACKSON INTL   MOCLDY    69  63  81 CALM      30.05F
6HR MIN TEMP:  69; 6HR MAX TEMP:  81;

JACKSON HAWKNS MOCLDY    72  61  68 CALM      30.05F
6HR MIN TEMP:  72; 6HR MAX TEMP:  82;

MERIDIAN KEY   MOCLDY    67  61  81 CALM      30.05R
6HR MIN TEMP:  66; 6HR MAX TEMP:  80;

MERIDIAN NAS   MOCLDY    68  62  81 CALM      30.05S
6HR MIN TEMP:  67; 6HR MAX TEMP:  80;

RAYMOND        FAIR      68  63  83 CALM      30.05F
VICKSBURG      CLOUDY    74  64  71 NE5       30.04F
6HR MIN TEMP:  69; 6HR MAX TEMP:  80;

$$

MSZ059>079-310700-
SOUTH MISSISSIPPI

CITY           SKY/WX    TMP DP  RH WIND       PRES   REMARKS
BROOKHAVEN     FAIR      70  63  78 CALM      30.06F
COLUMBIA       FAIR      64  64 100 CALM      30.03S
HATTIESBURG    CLEAR     66  63  90 CALM      30.05S
6HR MIN TEMP:  66; 6HR MAX TEMP:  84;

MCCOMB         PTCLDY    70  62  76 CALM      30.04F
6HR MIN TEMP:  68; 6HR MAX TEMP:  83;

NATCHEZ        CLOUDY    72  63  73 E6        30.04F
6HR MIN TEMP:  72; 6HR MAX TEMP:  79;

PINE BELT      CLEAR     64  59  82 CALM      30.05F
6HR MIN TEMP:  64; 6HR MAX TEMP:  82;

$$

MSZ080>082-310700-
COASTAL MISSISSIPPI

CITY           SKY/WX    TMP DP  RH WIND       PRES   REMARKS
BILOXI         CLEAR     73  63  72 NE3       30.02S
6HR MIN TEMP:  71; 6HR MAX TEMP:  82;

PASCAGOULA     CLEAR     64  63  96 CALM      30.02S
6HR MIN TEMP:  64; 6HR MAX TEMP:  82;

GULFPORT       CLEAR     72  62  71 N3        30.02R
6HR MIN TEMP:  71; 6HR MAX TEMP:  88;

$$



USA.gov is the U.S. government's official web portal to all federal, state and local government web resources and services.